TimeCST,TemperatureF,Dew PointF,Humidity,Sea Level PressureIn,VisibilityMPH,Wind Direction,Wind SpeedMPH,Gust SpeedMPH,PrecipitationIn,Events,Conditions,WindDirDegrees,DateUTC
12:54 AM,25.0,23.0,92,30.00,3.0,Calm,Calm,-,N/A,,Clear,0,2012-11-18 06:54:00
1:04 AM,24.8,23.0,93,29.93,1.8,Calm,Calm,-,N/A,,Clear,0,2012-11-18 07:04:00
1:16 AM,21.2,21.2,100,29.92,0.8,Calm,Calm,-,N/A,,Clear,0,2012-11-18 07:16:00
1:23 AM,24.8,21.2,86,29.93,1.2,South,3.5,-,N/A,,Clear,190,2012-11-18 07:23:00
1:29 AM,24.8,23.0,93,29.93,3.0,South,4.6,-,N/A,,Clear,180,2012-11-18 07:29:00
1:54 AM,25.0,23.0,92,29.99,3.0,SE,3.5,-,N/A,,Clear,130,2012-11-18 07:54:00
2:54 AM,24.1,21.9,91,29.98,4.0,Calm,Calm,-,N/A,,Clear,0,2012-11-18 08:54:00
3:54 AM,24.1,21.9,91,29.96,5.0,ESE,5.8,-,N/A,,Clear,110,2012-11-18 09:54:00
4:54 AM,24.1,23.0,96,29.95,3.0,SE,3.5,-,N/A,,Clear,130,2012-11-18 10:54:00
5:54 AM,21.9,19.9,92,29.95,5.0,Calm,Calm,-,N/A,,Clear,0,2012-11-18 11:54:00
6:54 AM,24.1,23.0,96,29.94,6.0,SSE,5.8,-,N/A,,Clear,150,2012-11-18 12:54:00
7:54 AM,25.0,23.0,92,29.94,5.0,Calm,Calm,-,N/A,,Clear,0,2012-11-18 13:54:00
8:30 AM,26.6,24.8,93,29.87,2.0,SSE,5.8,-,N/A,,Clear,160,2012-11-18 14:30:00
8:51 AM,26.6,24.8,93,29.86,4.0,Calm,Calm,-,N/A,,Clear,0,2012-11-18 14:51:00
8:54 AM,26.1,25.0,96,29.94,4.0,Calm,Calm,-,N/A,,Clear,0,2012-11-18 14:54:00
9:54 AM,30.9,28.9,92,29.93,7.0,Calm,Calm,-,N/A,,Clear,0,2012-11-18 15:54:00
10:54 AM,37.0,33.1,86,29.91,10.0,East,4.6,-,N/A,,Clear,90,2012-11-18 16:54:00
11:54 AM,37.0,32.0,82,29.89,10.0,East,6.9,-,N/A,,Clear,80,2012-11-18 17:54:00
12:54 PM,41.0,35.1,79,29.88,10.0,East,4.6,-,N/A,,Clear,100,2012-11-18 18:54:00
1:54 PM,44.6,35.6,71,29.81,10.0,South,11.5,-,N/A,,Clear,170,2012-11-18 19:54:00
2:54 PM,45.0,36.0,71,29.84,10.0,ESE,4.6,-,N/A,,Clear,110,2012-11-18 20:54:00
3:54 PM,41.0,35.1,79,29.83,10.0,ENE,5.8,-,N/A,,Clear,60,2012-11-18 21:54:00
4:54 PM,37.0,34.0,89,29.86,9.0,East,6.9,-,N/A,,Clear,100,2012-11-18 22:54:00
5:54 PM,36.0,33.1,89,29.87,10.0,ESE,5.8,-,N/A,,Clear,120,2012-11-18 23:54:00
6:54 PM,33.1,32.0,96,29.88,6.0,Calm,Calm,-,N/A,,Clear,0,2012-11-19 00:54:00
7:54 PM,30.2,30.2,100,29.82,4.0,Calm,Calm,-,N/A,,Clear,0,2012-11-19 01:54:00
8:54 PM,28.9,28.0,96,29.90,4.0,Calm,Calm,-,N/A,,Clear,0,2012-11-19 02:54:00
9:54 PM,35.1,33.1,92,29.89,8.0,SW,8.1,-,N/A,,Clear,230,2012-11-19 03:54:00
10:54 PM,37.9,32.0,79,29.90,10.0,West,9.2,-,N/A,,Clear,260,2012-11-19 04:54:00
11:54 PM,34.0,30.0,85,29.93,10.0,SW,4.6,-,N/A,,Clear,230,2012-11-19 05:54:00